Location: Pettit
(39.0209°N, 79.7181°W)
Time: 05:58:10
(UTC+00:00)

ISS - Pass Details

Date: 26 April 2026
Orbit: 414 x 424 km, 51.6° (Epoch: 15 May)

Event Time Altitude Azimuth Distance (km) Brightness Sun altitude
Exits shadow 08:11:40 20° 341° (NNW) 1,037 -1.6 -23.5°
Drops below altitude 10° 08:14:04 10° 26° (NNE) 1,501 0.0 -23.1°
Sets 08:16:34 0° 44° (NE) 2,370 1.6 -22.8°
